星链-35290(STARLINK-35290)

导读 | 豆包AI

STARLINK-35290是美国发射的星链计划卫星项目卫星,于2025年9月29日升空,该卫星属于SpaceX打造的近地轨道卫星星座成员,主要为全球范围提供高速低延迟互联网服务,尤其为偏远地区、海洋航行等传统网络覆盖盲区提供网络连接支持。

Basic Information
目录编号:
65846
目录名称:
STARLINK-35290
国际标识:
2025-221Z
轨道中心:
EARTH
卫星名称:
星链-35290
卫星全名:
星链-35290(STARLINK-35290)
卫星状态:
在轨 (已飞行212 天)
发射日期:
2025-09-29 UTC
国别 :
美国 (US)
星等 :
--
Orbit Information
数据来源 国际轨道数据 AOE轨道数据
星历时间 2026-04-29T07:21:14+0800
9小时前
查看轨道信息
2026-04-23T08:00:00+0800
6天前
查看轨道信息
半长轴 6853.313km 6853.404km
偏心率 0.0000102 0.0000784
轨道倾角 53.160° 53.158°
近地点辐角 265.402° 42.111°
升交点赤经 214.658° 242.407°
平近点角 94.697° 155.741°
近地点 475.106km 474.729km
远地点 475.246km 475.805km
周期 94.105分钟 94.106分钟
每日圈数 15.302131 15.301828
Detailed Information
固有亮度:
5
最大亮度:
2.5
卫星平台:
Starlink V1.0
覆盖范围:
全球
运营商:
太空探索技术公司
运营商所在国:
美国
制造商(研发单位):
太空探索技术公司
制造商所在国:
美国
使用方式:
暂无
Satellite Introduction
Starlink 计划是 SpaceX 推出的全球卫星互联网项目,通过发射低轨道卫星,为全球尤其是偏远地区提供高速、低延迟的互联网服务。自 2019 年起,Starlink 已部署数千颗卫星,旨在缩小全球数字鸿沟,推动互联网普及。该项目还为军事、航空等行业提供通信支持,带来广泛经济效益。
2D Orbit Map
3D Orbit Map
Orbit Altitude Analysis Chart
Orbit Inclination Analysis Chart
Orbit Comprehensive Analysis Chart
View Comprehensive Chart